FW0225 Weather Reports


Display with metric or nautical units.
time (UTC)temp
F
wind
direction
speed
MPH
gust
MPH
rain 1hr
in
rain 24hr
in
rain mn
in
humidity
%
barometer
mb
20260906214026 66 37 0.0 1.0 0.00 0.00 0.00 81 1022.7
20260906213517 67 37 0.0 1.0 0.00 0.00 0.00 81 1022.8
20260906213032 67 37 0.0 1.0 0.00 0.00 0.00 81 1022.7
20260906212519 67 37 0.0 1.0 0.00 0.00 0.00 81 1022.7
20260906212022 67 37 0.0 1.0 0.00 0.00 0.00 81 1022.7
20260906211551 67 37 0.0 2.0 0.00 0.00 0.00 80 1022.7
20260906211052 67 37 1.0 2.0 0.00 0.00 0.00 80 1022.7
20260906210517 67 37 0.0 0.0 0.00 0.00 0.00 80 1022.6
20260906210052 67 37 0.0 1.0 0.00 0.00 0.00 80 1022.5
20260906205516 67 37 0.0 1.0 0.00 0.00 0.00 80 1022.4
20260906205018 68 37 0.0 1.0 0.00 0.00 0.00 79 1022.5
20260906204523 68 37 0.0 1.0 0.00 0.00 0.00 79 1022.4
20260906204045 68 37 0.0 1.0 0.00 0.00 0.00 79 1022.5
20260906203530 68 37 0.0 1.0 0.00 0.00 0.00 79 1022.5
20260906203044 68 37 0.0 1.0 0.00 0.00 0.00 79 1022.5
20260906202530 68 37 0.0 1.0 0.00 0.00 0.00 78 1022.4
20260906202031 68 37 0.0 1.0 0.00 0.00 0.00 78 1022.4
20260906201516 69 37 0.0 0.0 0.00 0.00 0.00 78 1022.4
20260906201038 69 37 0.0 1.0 0.00 0.00 0.00 78 1022.4
20260906200527 69 37 0.0 1.0 0.00 0.00 0.00 77 1022.4
20260906200021 69 37 0.0 1.0 0.00 0.00 0.00 77 1022.3
20260906195527 69 37 0.0 1.0 0.00 0.00 0.00 77 1022.2
20260906195029 69 37 0.0 1.0 0.00 0.00 0.00 77 1022.2
20260906194515 69 37 0.0 1.0 0.00 0.00 0.00 76 1022.2
20260906194016 69 37 1.0 2.0 0.00 0.00 0.00 77 1022.2
20260906193521 70 37 0.0 1.0 0.00 0.00 0.00 77 1022.2
20260906193016 70 37 0.0 2.0 0.00 0.00 0.00 77 1022.2
20260906192541 70 37 1.0 2.0 0.00 0.00 0.00 76 1022.3
20260906192043 70 37 0.0 1.0 0.00 0.00 0.00 76 1022.2
20260906191527 70 37 0.0 1.0 0.00 0.00 0.00 76 1022.2
20260906191029 70 37 0.0 1.0 0.00 0.00 0.00 75 1022.2
20260906190515 71 37 0.0 2.0 0.00 0.00 0.00 75 1022.0
20260906190012 71 37 1.0 2.0 0.00 0.00 0.00 75 1022.0
20260906185539 71 37 0.0 1.0 0.00 0.00 0.00 74 1021.9
20260906185021 71 37 1.0 1.0 0.00 0.00 0.00 74 1021.9
20260906184527 71 37 1.0 1.0 0.00 0.00 0.00 74 1021.9
20260906184029 71 37 0.0 1.0 0.00 0.00 0.00 74 1021.9
20260906183515 72 37 0.0 1.0 0.00 0.00 0.00 74 1021.7
20260906183049 72 37 0.0 0.0 0.00 0.00 0.00 73 1021.7
20260906182513 72 37 0.0 0.0 0.00 0.00 0.00 72 1021.6
20260906182016 72 37 0.0 1.0 0.00 0.00 0.00 72 1021.6
20260906181522 72 37 0.0 1.0 0.00 0.00 0.00 72 1021.6
20260906181025 73 37 0.0 2.0 0.00 0.00 0.00 72 1021.5
20260906180510 73 37 0.0 2.0 0.00 0.00 0.00 71 1021.5
20260906180026 74 37 0.0 1.0 0.00 0.00 0.00 71 1021.4
20260906175512 74 37 0.0 1.0 0.00 0.00 0.00 70 1021.3
20260906175015 74 37 0.0 0.0 0.00 0.00 0.00 69 1021.3
20260906174527 74 37 0.0 0.0 0.00 0.00 0.00 69 1021.3
20260906174011 75 37 0.0 1.0 0.00 0.00 0.00 68 1021.2
20260906173517 75 37 0.0 1.0 0.00 0.00 0.00 69 1021.2
20260906173012 75 37 0.0 1.0 0.00 0.00 0.00 68 1021.1
20260906172540 76 37 0.0 1.0 0.00 0.00 0.00 67 1021.0
20260906172023 76 37 0.0 1.0 0.00 0.00 0.00 67 1021.0
20260906171530 76 37 0.0 1.0 0.00 0.00 0.00 68 1020.9
20260906171032 76 37 0.0 1.0 0.00 0.00 0.00 67 1021.0
20260906170538 77 37 0.0 1.0 0.00 0.00 0.00 67 1020.9
20260906170033 77 37 0.0 1.0 0.00 0.00 0.00 66 1020.9
20260906165520 77 37 0.0 2.0 0.00 0.00 0.00 66 1020.9
20260906165020 77 37 1.0 2.0 0.00 0.00 0.00 65 1020.8
20260906164524 78 37 0.0 1.0 0.00 0.00 0.00 65 1020.8
20260906164028 78 37 0.0 1.0 0.00 0.00 0.00 64 1020.8
20260906163515 79 37 0.0 1.0 0.00 0.00 0.00 63 1020.7
20260906163029 79 37 0.0 1.0 0.00 0.00 0.00 63 1020.6
20260906162517 80 37 0.0 1.0 0.00 0.00 0.00 61 1020.6
20260906162020 81 37 1.0 1.0 0.00 0.00 0.00 60 1020.6
20260906161524 82 37 0.0 1.0 0.00 0.00 0.00 58 1020.5
20260906161026 83 37 0.0 3.0 0.00 0.00 0.00 56 1020.4
20260906160551 83 37 1.0 3.0 0.00 0.00 0.00 54 1020.4
20260906160025 83 37 1.0 3.0 0.00 0.00 0.00 54 1020.4
20260906155529 84 37 1.0 2.0 0.00 0.00 0.00 53 1020.4
20260906155031 85 37 1.0 2.0 0.00 0.00 0.00 51 1020.5
20260906154517 85 37 1.0 2.0 0.00 0.00 0.00 49 1020.4
20260906154020 86 37 1.0 6.0 0.00 0.00 0.00 48 1020.4
20260906153525 87 37 2.0 6.0 0.00 0.00 0.00 45 1020.4
20260906153022 87 43 1.0 2.0 0.00 0.00 0.00 44 1020.5
20260906152527 88 43 1.0 2.0 0.00 0.00 0.00 45 1020.4
20260906152029 89 44 1.0 4.0 0.00 0.00 0.00 43 1020.5
20260906151521 89 44 1.0 4.0 0.00 0.00 0.00 43 1020.5
20260906151024 89 42 1.0 3.0 0.00 0.00 0.00 42 1020.5
20260906150530 90 44 1.0 4.0 0.00 0.00 0.00 42 1020.5
20260906150023 90 46 2.0 4.0 0.00 0.00 0.00 38 1020.5
20260906145549 90 44 1.0 5.0 0.00 0.00 0.00 39 1020.4
20260906145030 91 53 1.0 5.0 0.00 0.00 0.00 42 1020.5
20260906144514 91 55 3.0 7.0 0.00 0.00 0.00 39 1020.5
20260906144037 91 51 4.0 7.0 0.00 0.00 0.00 37 1020.5
20260906143521 91 51 4.0 6.0 0.00 0.00 0.00 40 1020.6
20260906143016 92 54 4.0 6.0 0.00 0.00 0.00 37 1020.6
20260906142522 92 52 1.0 4.0 0.00 0.00 0.00 37 1020.7
20260906142025 92 54 2.0 5.0 0.00 0.00 0.00 37 1020.7
20260906141551 92 42 1.0 6.0 0.00 0.00 0.00 37 1020.7
20260906141012 92 56 3.0 6.0 0.00 0.00 0.00 36 1020.7
20260906140523 92 71 2.0 3.0 0.00 0.00 0.00 36 1020.8
20260906140017 92 63 2.0 3.0 0.00 0.00 0.00 37 1020.8
20260906135523 92 63 1.0 5.0 0.00 0.00 0.00 36 1020.8
20260906135024 92 64 3.0 5.0 0.00 0.00 0.00 36 1020.8
20260906134531 91 67 1.0 9.0 0.00 0.00 0.00 38 1020.8
20260906134013 91 67 3.0 9.0 0.00 0.00 0.00 36 1020.8
20260906133521 91 61 2.0 6.0 0.00 0.00 0.00 38 1020.8
20260906133037 91 46 4.0 6.0 0.00 0.00 0.00 37 1020.8
20260906132523 91 64 3.0 5.0 0.00 0.00 0.00 39 1020.8
20260906132025 91 142 3.0 9.0 0.00 0.00 0.00 38 1020.9
20260906131530 91 73 4.0 9.0 0.00 0.00 0.00 38 1020.9
20260906131031 90 55 4.0 7.0 0.00 0.00 0.00 37 1021.0
20260906130518 90 66 4.0 11.0 0.00 0.00 0.00 38 1021.0
20260906130017 90 62 3.0 11.0 0.00 0.00 0.00 38 1021.1
20260906125543 90 61 4.0 8.0 0.00 0.00 0.00 39 1021.1
20260906125044 90 56 3.0 10.0 0.00 0.00 0.00 39 1021.1
20260906124529 90 44 4.0 11.0 0.00 0.00 0.00 38 1021.1
20260906124013 90 85 6.0 13.0 0.00 0.00 0.00 38 1021.2
20260906123521 90 64 9.0 13.0 0.00 0.00 0.00 38 1021.2
20260906123016 89 80 4.0 11.0 0.00 0.00 0.00 39 1021.3
20260906122521 89 64 2.0 11.0 0.00 0.00 0.00 40 1021.2
20260906122022 89 62 5.0 11.0 0.00 0.00 0.00 38 1021.3
20260906121527 89 51 3.0 10.0 0.00 0.00 0.00 40 1021.3
20260906121029 89 54 2.0 10.0 0.00 0.00 0.00 40 1021.4
20260906120516 89 70 5.0 9.0 0.00 0.00 0.00 42 1021.4
20260906120051 89 50 3.0 11.0 0.00 0.00 0.00 40 1021.3
20260906115515 89 63 4.0 11.0 0.00 0.00 0.00 41 1021.4
20260906115017 88 61 5.0 12.0 0.00 0.00 0.00 41 1021.3
20260906114524 88 80 7.0 12.0 0.00 0.00 0.00 40 1021.4
20260906114012 88 35 4.0 9.0 0.00 0.00 0.00 41 1021.4
20260906113519 88 57 4.0 9.0 0.00 0.00 0.00 41 1021.5
20260906113015 88 73 4.0 13.0 0.00 0.00 0.00 43 1021.6
20260906112540 88 61 6.0 14.0 0.00 0.00 0.00 42 1021.6
20260906112021 87 67 7.0 14.0 0.00 0.00 0.00 43 1021.5
20260906111527 87 57 8.0 14.0 0.00 0.00 0.00 42 1021.5
20260906111028 87 67 6.0 14.0 0.00 0.00 0.00 43 1021.6
20260906110515 87 71 4.0 16.0 0.00 0.00 0.00 44 1021.6
20260906110029 87 65 7.0 16.0 0.00 0.00 0.00 43 1021.6
20260906105514 87 63 7.0 13.0 0.00 0.00 0.00 44 1021.6
20260906105019 87 78 6.0 12.0 0.00 0.00 0.00 44 1021.6
20260906104525 87 59 4.0 11.0 0.00 0.00 0.00 45 1021.7
20260906104013 86 53 3.0 13.0 0.00 0.00 0.00 44 1021.6
20260906103518 86 51 6.0 15.0 0.00 0.00 0.00 44 1021.7
20260906103013 86 76 8.0 15.0 0.00 0.00 0.00 44 1021.8
20260906102520 86 61 7.0 15.0 0.00 0.00 0.00 44 1021.7
20260906102025 86 38 7.0 15.0 0.00 0.00 0.00 45 1021.7
20260906101512 86 22 8.0 13.0 0.00 0.00 0.00 44 1021.8
20260906101015 86 46 5.0 11.0 0.00 0.00 0.00 44 1021.9
20260906100539 86 17 6.0 11.0 0.00 0.00 0.00 44 1021.9
20260906100013 86 70 5.0 10.0 0.00 0.00 0.00 45 1021.9
20260906095519 86 62 4.0 12.0 0.00 0.00 0.00 45 1021.9
20260906095020 86 72 5.0 13.0 0.00 0.00 0.00 45 1022.0
20260906094526 85 65 5.0 13.0 0.00 0.00 0.00 48 1022.0
20260906094013 85 60 3.0 12.0 0.00 0.00 0.00 46 1022.0
20260906093518 85 59 6.0 12.0 0.00 0.00 0.00 45 1022.1
20260906093014 85 83 5.0 16.0 0.00 0.00 0.00 46 1022.2
20260906092521 85 61 5.0 16.0 0.00 0.00 0.00 47 1022.2
20260906092024 84 54 5.0 11.0 0.00 0.00 0.00 47 1022.3
20260906091527 84 65 5.0 13.0 0.00 0.00 0.00 47 1022.3
20260906091029 84 53 7.0 15.0 0.00 0.00 0.00 48 1022.2
20260906090514 84 42 9.0 15.0 0.00 0.00 0.00 47 1022.4
20260906090027 84 58 5.0 12.0 0.00 0.00 0.00 48 1022.4
20260906085514 83 34 6.0 13.0 0.00 0.00 0.00 47 1022.3
20260906085019 83 55 5.0 12.0 0.00 0.00 0.00 48 1022.3
20260906084546 83 43 5.0 14.0 0.00 0.00 0.00 48 1022.4
20260906084027 83 41 8.0 14.0 0.00 0.00 0.00 48 1022.3
20260906083513 83 67 4.0 12.0 0.00 0.00 0.00 49 1022.3
20260906083027 83 70 6.0 12.0 0.00 0.00 0.00 47 1022.4
20260906082516 83 86 7.0 11.0 0.00 0.00 0.00 48 1022.4
20260906082020 83 61 6.0 13.0 0.00 0.00 0.00 49 1022.4
20260906081525 83 49 4.0 11.0 0.00 0.00 0.00 50 1022.5
20260906081046 82 57 5.0 11.0 0.00 0.00 0.00 49 1022.4
20260906080530 82 45 3.0 14.0 0.00 0.00 0.00 50 1022.3
20260906080024 82 67 5.0 14.0 0.00 0.00 0.00 49 1022.4
20260906075530 82 56 5.0 13.0 0.00 0.00 0.00 49 1022.5
20260906075013 81 78 4.0 14.0 0.00 0.00 0.00 51 1022.4
20260906074520 81 44 6.0 18.0 0.00 0.00 0.00 50 1022.2
20260906074023 81 64 10.0 18.0 0.00 0.00 0.00 51 1022.2
20260906073530 81 57 6.0 17.0 0.00 0.00 0.00 51 1022.1
20260906073045 81 5 5.0 14.0 0.00 0.00 0.00 51 1022.0
20260906072548 81 55 6.0 13.0 0.00 0.00 0.00 51 1022.1
20260906072049 80 74 5.0 12.0 0.00 0.00 0.00 51 1022.0
20260906071513 80 42 6.0 15.0 0.00 0.00 0.00 51 1022.2
20260906071020 80 35 6.0 15.0 0.00 0.00 0.00 52 1022.1
20260906070525 80 52 5.0 14.0 0.00 0.00 0.00 52 1022.2
20260906070019 79 35 4.0 13.0 0.00 0.00 0.00 53 1022.0
20260906065525 79 44 5.0 13.0 0.00 0.00 0.00 53 1022.0
20260906065046 79 90 3.0 13.0 0.00 0.00 0.00 54 1022.1
20260906064550 78 46 5.0 13.0 0.00 0.00 0.00 54 1022.1
20260906064015 77 75 7.0 13.0 0.00 0.00 0.00 54 1022.0
20260906063522 77 50 4.0 16.0 0.00 0.00 0.00 55 1022.1
20260906063018 77 53 8.0 16.0 0.00 0.00 0.00 55 1022.0
20260906062523 77 49 4.0 11.0 0.00 0.00 0.00 56 1021.9
20260906062024 77 55 1.0 15.0 0.00 0.00 0.00 56 1022.0
20260906061529 77 61 4.0 17.0 0.00 0.00 0.00 55 1022.0
20260906061030 77 75 3.0 17.0 0.00 0.00 0.00 56 1021.9
20260906060519 76 42 3.0 12.0 0.00 0.00 0.00 58 1021.9
20260906060017 76 41 2.0 8.0 0.00 0.00 0.00 58 1021.9
20260906055522 76 44 3.0 11.0 0.00 0.00 0.00 58 1021.7
20260906055025 76 46 4.0 12.0 0.00 0.00 0.00 58 1021.7
20260906054532 76 59 2.0 12.0 0.00 0.00 0.00 58 1021.6
20260906054014 76 36 4.0 12.0 0.00 0.00 0.00 58 1021.8
20260906053520 76 348 3.0 6.0 0.00 0.00 0.00 60 1021.6
20260906053014 76 344 1.0 9.0 0.00 0.00 0.00 60 1021.5
20260906052520 76 341 2.0 9.0 0.00 0.00 0.00 58 1021.5
20260906052024 76 355 2.0 10.0 0.00 0.00 0.00 60 1021.5
20260906051531 76 355 2.0 10.0 0.00 0.00 0.00 59 1021.4
20260906051013 76 346 3.0 6.0 0.00 0.00 0.00 58 1021.4
20260906050523 76 347 3.0 6.0 0.00 0.00 0.00 58 1021.4
20260906050019 76 355 2.0 8.0 0.00 0.00 0.00 58 1021.4
20260906045546 76 5 3.0 8.0 0.00 0.00 0.00 58 1021.3
20260906045026 76 10 3.0 10.0 0.00 0.00 0.00 58 1021.2
20260906044530 76 360 3.0 10.0 0.00 0.00 0.00 58 1021.2
20260906044015 76 28 2.0 8.0 0.00 0.00 0.00 58 1021.3
20260906043519 76 28 3.0 9.0 0.00 0.00 0.00 58 1021.1
20260906043013 76 40 2.0 9.0 0.00 0.00 0.00 57 1021.1
20260906042519 76 30 2.0 8.0 0.00 0.00 0.00 58 1021.1
20260906042020 76 30 3.0 12.0 0.00 0.00 0.00 58 1021.0
20260906041526 76 30 4.0 12.0 0.00 0.00 0.00 58 1021.0
20260906041028 76 12 1.0 10.0 0.00 0.00 0.00 59 1020.9
20260906040514 76 17 2.0 10.0 0.00 0.00 0.00 58 1020.9
20260906040048 76 5 2.0 9.0 0.00 0.00 0.00 58 1020.8
20260906035512 77 355 2.0 6.0 0.00 0.00 0.00 58 1020.8
20260906035013 77 355 2.0 4.0 0.00 0.00 0.00 58 1020.7
20260906034518 77 355 2.0 5.0 0.00 0.00 0.00 57 1020.6
20260906034026 77 355 3.0 5.0 0.00 0.00 0.00 57 1020.6
20260906033532 77 360 2.0 5.0 0.00 0.00 0.00 57 1020.6
20260906033026 77 5 2.0 4.0 0.00 0.00 0.00 57 1020.6
20260906032514 77 360 1.0 6.0 0.00 0.00 0.00 57 1020.6
20260906032018 77 15 2.0 6.0 0.00 0.00 0.00 56 1020.4
20260906031523 77 355 2.0 4.0 0.00 0.00 0.00 58 1020.4
20260906031026 78 355 1.0 3.0 0.00 0.00 0.00 57 1020.4
20260906030514 78 360 1.0 6.0 0.00 0.00 0.00 56 1020.3
20260906030028 78 360 2.0 8.0 0.00 0.00 0.00 55 1020.4
20260906025536 78 10 2.0 8.0 0.00 0.00 0.00 55 1020.3
20260906025015 78 5 2.0 6.0 0.00 0.00 0.00 55 1020.3
20260906024521 78 38 2.0 7.0 0.00 0.00 0.00 55 1020.3
20260906024024 78 44 1.0 7.0 0.00 0.00 0.00 56 1020.2
20260906023514 78 38 1.0 12.0 0.00 0.00 0.00 55 1020.2
20260906023029 78 325 2.0 8.0 0.00 0.00 0.00 55 1020.1
20260906022514 78 313 1.0 5.0 0.00 0.00 0.00 55 1020.2
20260906022019 78 313 1.0 8.0 0.00 0.00 0.00 54 1020.1
20260906021544 78 317 1.0 5.0 0.00 0.00 0.00 55 1020.1
20260906021025 78 318 2.0 5.0 0.00 0.00 0.00 55 1020.1
20260906020530 78 317 2.0 6.0 0.00 0.00 0.00 55 1020.0
20260906020026 78 313 2.0 9.0 0.00 0.00 0.00 55 1020.1
20260906015513 78 304 3.0 9.0 0.00 0.00 0.00 54 1019.9
20260906015016 78 346 2.0 9.0 0.00 0.00 0.00 55 1019.9
20260906014522 78 310 1.0 5.0 0.00 0.00 0.00 55 1020.0
20260906014026 79 313 1.0 10.0 0.00 0.00 0.00 55 1019.9
20260906013517 78 311 3.0 10.0 0.00 0.00 0.00 55 1019.9
20260906013031 78 15 3.0 10.0 0.00 0.00 0.00 55 1020.0
20260906012518 79 350 2.0 5.0 0.00 0.00 0.00 55 1019.9
20260906012020 78 348 1.0 8.0 0.00 0.00 0.00 56 1020.0
20260906011527 78 348 2.0 8.0 0.00 0.00 0.00 55 1020.0
20260906011029 78 5 2.0 9.0 0.00 0.00 0.00 56 1020.0
20260906010534 78 11 1.0 9.0 0.00 0.00 0.00 56 1019.9
20260906010025 78 355 2.0 6.0 0.00 0.00 0.00 56 1019.9
20260906005532 78 355 2.0 6.0 0.00 0.00 0.00 56 1019.8
20260906005015 78 5 1.0 8.0 0.00 0.00 0.00 56 1019.8
20260906004542 78 360 2.0 8.0 0.00 0.00 0.00 56 1019.8
20260906004024 78 360 1.0 5.0 0.00 0.00 0.00 57 1019.8
20260906003554 78 360 2.0 8.0 0.00 0.00 0.00 56 1019.8
20260906003027 78 13 2.0 10.0 0.00 0.00 0.00 56 1019.8
20260906002532 78 22 2.0 10.0 0.00 0.00 0.00 56 1019.7
20260906002017 78 12 1.0 9.0 0.00 0.00 0.00 57 1019.7
20260906001524 78 15 3.0 9.0 0.00 0.00 0.00 57 1019.7
20260906001024 78 5 2.0 6.0 0.00 0.00 0.00 56 1019.7
20260906000550 78 19 2.0 4.0 0.00 0.00 0.00 57 1019.7
20260906000022 78 19 1.0 4.0 0.00 0.00 0.00 56 1019.7
20260905235548 79 22 2.0 4.0 0.00 0.00 0.00 57 1019.7
20260905235029 79 18 2.0 9.0 0.00 0.00 0.00 56 1019.6
20260905234514 79 19 2.0 9.0 0.00 0.00 0.00 56 1019.5
20260905234018 79 24 2.0 5.0 0.00 0.00 0.00 57 1019.5
20260905233543 79 30 1.0 12.0 0.00 0.00 0.00 57 1019.4
20260905233016 79 36 2.0 12.0 0.00 0.00 0.00 57 1019.5
20260905232522 79 292 2.0 5.0 0.00 0.00 0.00 57 1019.4
20260905232024 79 292 2.0 5.0 0.00 0.00 0.00 57 1019.4
20260905231529 79 288 2.0 4.0 0.00 0.00 0.00 58 1019.4
20260905231014 79 287 1.0 4.0 0.00 0.00 0.00 58 1019.4
20260905230524 78 287 2.0 7.0 0.00 0.00 0.00 58 1019.4
20260905230018 78 287 1.0 4.0 0.00 0.00 0.00 58 1019.3
20260905225526 78 287 2.0 4.0 0.00 0.00 0.00 57 1019.3
20260905225030 78 287 2.0 4.0 0.00 0.00 0.00 58 1019.2
20260905224535 77 284 1.0 3.0 0.00 0.00 0.00 60 1019.1
20260905224015 77 284 1.0 4.0 0.00 0.00 0.00 60 1019.1
20260905223521 77 284 2.0 4.0 0.00 0.00 0.00 61 1019.1
20260905223015 77 284 1.0 3.0 0.00 0.00 0.00 61 1019.0
20260905222521 77 284 1.0 3.0 0.00 0.00 0.00 59 1019.0
20260905222023 78 284 1.0 4.0 0.00 0.00 0.00 61 1019.0
20260905221528 78 284 2.0 3.0 0.00 0.00 0.00 58 1019.1
20260905221029 78 284 1.0 5.0 0.00 0.00 0.00 60 1019.0
20260905220537 78 283 1.0 5.0 0.00 0.00 0.00 60 1019.0
20260905220052 78 282 2.0 5.0 0.00 0.00 0.00 60 1019.1
20260905215517 78 277 1.0 3.0 0.00 0.00 0.00 60 1019.0
20260905215039 78 277 1.0 3.0 0.00 0.00 0.00 60 1018.9
20260905214544 78 277 1.0 3.0 0.00 0.00 0.00 60 1019.0